Weather reports worldwide

Advertisment
Lugo/Rozas, Spain (8008): temperature & dewpoint: 13.08.2019 00:00:00 - 19.08.2019 00:00:00 (CEST)Lugo/Rozas, Spain (8008): wind speed: 13.08.2019 00:00:00 - 19.08.2019 00:00:00 (CEST)Lugo/Rozas, Spain (8008): wind direction: 13.08.2019 00:00:00 - 19.08.2019 00:00:00 (CEST)Lugo/Rozas, Spain (8008): reduced air pressure: 13.08.2019 00:00:00 - 19.08.2019 00:00:00 (CEST)Lugo/Rozas, Spain (8008): visibility: 13.08.2019 00:00:00 - 19.08.2019 00:00:00 (CEST)Lugo/Rozas, Spain (8008): precipitation: 13.08.2019 00:00:00 - 19.08.2019 00:00:00 (CEST)
Date & Time tt [°C] td [°C] ff [km/h] ff [kn] dd ppp [hPa] vv [km] rr [mm]
19.08.2019 00:00:00 11,0 9,6 2 1 WNW - 18 0,0
18.08.2019 23:00:00 12,4 10,1 2 1 ENE - 20 -
18.08.2019 22:00:00 13,6 10,6 4 2 ENE - 20 0,0
18.08.2019 21:00:00 15,7 11,5 9 5 ENE - 20 0,0
18.08.2019 20:00:00 16,7 12,6 8 4 NE - 20 -
18.08.2019 19:00:00 18,8 13,9 5 3 NE - 20 0,0
18.08.2019 18:00:00 19,3 14,3 8 4 NE - 20 0,0
18.08.2019 17:00:00 19,0 13,8 5 3 ENE - 20 -
18.08.2019 16:00:00 18,0 14,9 8 4 ENE - 20 0,0
18.08.2019 15:00:00 16,9 14,5 4 2 NE - 13 0,0
18.08.2019 14:00:00 16,2 15,1 5 3 NE - 15 -
18.08.2019 13:00:00 15,6 14,6 8 4 N 1017,6 2,8 0,6
18.08.2019 12:00:00 16,2 15,4 4 2 ENE 1016,7 3,0 0,2
18.08.2019 11:00:00 16,2 15,6 2 1 NNE 1015,9 20 -
18.08.2019 10:00:00 15,6 15,1 4 2 NW 1015,4 11 2,0
18.08.2019 09:00:00 15,8 15,2 5 3 WNW 1014,7 3,3 1,0
18.08.2019 08:00:00 16,7 16,1 5 3 WNW 1013,7 1,7 -
18.08.2019 07:00:00 17,4 16,6 8 4 WSW 1012,7 1,7 0,2
18.08.2019 06:00:00 18,2 16,2 11 6 SSW 1011,7 8 0,0
18.08.2019 05:00:00 19,0 15,3 11 6 S 1011,8 20 -
18.08.2019 04:00:00 18,8 15,3 9 5 SSW 1012,3 20 0,0
18.08.2019 03:00:00 19,3 15,0 8 4 S 1012,9 20 0,0
18.08.2019 02:00:00 19,5 14,9 9 5 SSW 1013,5 20 -
18.08.2019 01:00:00 19,5 15,2 13 7 SW 1014,0 20 0,0
18.08.2019 00:00:00 18,6 15,7 13 7 W 1014,5 20 0,0
17.08.2019 23:00:00 19,3 15,8 11 6 WSW 1013,9 20 -
17.08.2019 22:00:00 20,5 16,3 9 5 WSW 1013,4 20 0,0
17.08.2019 21:00:00 22,3 16,8 13 7 W 1013,0 20 0,0
17.08.2019 20:00:00 25,0 16,7 15 8 W 1012,8 20 -
17.08.2019 19:00:00 27,1 16,7 11 6 WNW 1012,4 20 0,0
17.08.2019 18:00:00 28,2 17,7 11 6 W 1012,3 20 0,0
17.08.2019 17:00:00 28,5 16,4 16 9 WSW 1012,5 20 -
17.08.2019 16:00:00 27,5 17,7 15 8 SW 1013,0 20 0,0
17.08.2019 15:00:00 26,3 17,1 16 9 WSW 1014,0 20 0,0
17.08.2019 14:00:00 25,7 17,1 13 7 WSW 1014,6 20 -
17.08.2019 13:00:00 23,8 17,1 11 6 SSW 1015,5 19 0,0
17.08.2019 12:00:00 22,2 16,2 9 5 SSW 1015,9 20 0,0
17.08.2019 11:00:00 19,7 15,3 9 5 SSW 1016,7 20 -
17.08.2019 10:00:00 18,2 15,1 11 6 S 1017,0 20 0,0
17.08.2019 09:00:00 17,1 14,7 8 4 S 1017,4 20 0,0
17.08.2019 08:00:00 16,8 14,8 5 3 S 1017,7 20 -
17.08.2019 07:00:00 16,3 14,8 4 2 S 1017,9 20 0,0
17.08.2019 06:00:00 16,2 14,9 5 3 SSW 1017,7 20 0,0
17.08.2019 05:00:00 15,5 14,9 4 2 SW 1018,1 20 -
17.08.2019 04:00:00 15,0 14,2 5 3 W 1018,2 18 0,0
17.08.2019 03:00:00 15,7 14,4 2 1 ESE 1018,4 19 0,0
17.08.2019 02:00:00 17,1 15,1 2 1 S 1018,5 20 -
17.08.2019 01:00:00 17,5 15,7 8 4 SW 1018,7 20 0,0
17.08.2019 00:00:00 17,9 15,5 8 4 WSW 1019,1 20 0,0
16.08.2019 23:00:00 18,9 16,1 5 3 WSW 1018,7 20 -
16.08.2019 22:00:00 21,0 16,4 4 2 SW 1017,5 20 0,0
16.08.2019 21:00:00 23,4 16,2 8 4 W 1016,7 20 0,0
16.08.2019 20:00:00 26,1 15,8 9 5 W 1015,7 20 -
16.08.2019 19:00:00 27,9 15,2 9 5 W 1015,5 20 0,0
16.08.2019 18:00:00 28,4 14,6 9 5 W 1015,5 20 0,0
16.08.2019 17:00:00 28,8 12,2 11 6 NW 1016,0 19 -
16.08.2019 16:00:00 29,2 11,3 9 5 W 1016,2 20 0,0
16.08.2019 15:00:00 28,2 12,9 9 5 W 1016,4 20 0,0
16.08.2019 14:00:00 26,5 12,2 8 4 WSW 1017,1 20 -
16.08.2019 13:00:00 23,5 16,0 5 3 NW 1018,0 20 0,0
16.08.2019 12:00:00 18,7 14,4 4 2 N 1019,4 20 0,0
16.08.2019 11:00:00 14,5 12,9 4 2 N 1020,0 20 -
16.08.2019 10:00:00 11,1 10,9 2 1 SE 1021,2 1,0 0,0
16.08.2019 09:00:00 10,0 9,8 2 1 W 1021,7 0,3 0,0
16.08.2019 08:00:00 9,7 9,6 2 1 WSW 1021,6 0,1 -
16.08.2019 07:00:00 9,3 9,0 2 1 ESE 1021,7 0,1 0,0
16.08.2019 06:00:00 9,1 7,9 2 1 SSW 1021,6 12 0,0
16.08.2019 05:00:00 10,3 9,2 2 1 S 1021,5 7 -
16.08.2019 04:00:00 10,9 9,8 2 1 W 1022,1 - 0,0
16.08.2019 03:00:00 11,7 11,2 2 1 S 1022,0 0,3 0,0
16.08.2019 02:00:00 11,4 9,8 0 0 N 1022,5 11 -
16.08.2019 01:00:00 12,3 10,7 2 1 SSE 1022,4 9 0,0
16.08.2019 00:00:00 13,6 11,5 2 1 W 1022,6 14 0,0
15.08.2019 23:00:00 15,3 13,0 2 1 ENE 1022,4 18 -
15.08.2019 22:00:00 16,9 13,6 4 2 NE 1021,9 20 0,0
15.08.2019 21:00:00 19,7 14,5 4 2 NNE 1021,2 20 0,0
15.08.2019 20:00:00 22,5 14,9 5 3 NE 1020,2 20 -
15.08.2019 19:00:00 23,7 15,5 13 7 ENE 1020,0 20 0,0
15.08.2019 18:00:00 24,8 15,4 9 5 ENE 1020,1 20 0,0
15.08.2019 17:00:00 25,6 14,7 8 4 NNE 1020,4 20 -
15.08.2019 16:00:00 24,8 15,1 8 4 ENE 1020,8 20 0,0
15.08.2019 15:00:00 24,5 14,6 4 2 N 1021,1 20 0,0
15.08.2019 14:00:00 23,1 13,8 5 3 NE 1021,6 20 -
15.08.2019 13:00:00 21,9 13,3 8 4 NE 1022,2 20 0,0
15.08.2019 12:00:00 19,4 14,9 4 2 NNE 1022,7 20 0,0
15.08.2019 11:00:00 15,3 14,0 4 2 WSW 1023,6 18 -
15.08.2019 10:00:00 13,2 12,9 2 1 N 1024,0 2,4 0,0
15.08.2019 09:00:00 12,5 12,3 2 1 NNE 1023,9 - 0,0
15.08.2019 08:00:00 11,9 11,6 2 1 NNE 1024,1 0,2 -
15.08.2019 07:00:00 11,9 11,3 0 0 N 1024,0 10 0,0
15.08.2019 06:00:00 12,0 11,2 2 1 ESE 1024,0 0,3 0,0
15.08.2019 05:00:00 12,4 11,5 4 2 SSE 1024,0 4,0 -
15.08.2019 04:00:00 12,7 11,6 2 1 SSE 1023,9 8 0,0
15.08.2019 03:00:00 13,3 12,5 2 1 SSE 1024,1 9 0,0
15.08.2019 02:00:00 13,0 12,1 2 1 SSE 1024,4 11 -
15.08.2019 01:00:00 13,5 12,2 4 2 SSE 1023,8 9 0,0
15.08.2019 00:00:00 14,5 13,0 4 2 SE 1023,4 9 0,0
14.08.2019 23:00:00 16,1 14,5 2 1 SSE 1023,2 13 -
14.08.2019 22:00:00 18,7 15,2 2 1 NNE 1022,4 19 0,0
14.08.2019 21:00:00 21,0 16,0 5 3 NW 1021,4 20 0,0
14.08.2019 20:00:00 22,9 15,7 8 4 NW 1020,8 20 -
14.08.2019 19:00:00 22,3 17,4 8 4 NW 1020,7 20 0,0
14.08.2019 18:00:00 22,2 17,6 5 3 WNW 1020,9 20 0,0
14.08.2019 17:00:00 22,3 17,9 8 4 W 1021,0 20 -
14.08.2019 16:00:00 21,9 18,7 5 3 W 1021,2 7 0,0
14.08.2019 15:00:00 23,9 17,4 9 5 W 1020,7 19 0,0
14.08.2019 14:00:00 22,9 17,1 5 3 W 1021,0 19 -
14.08.2019 13:00:00 22,0 15,1 5 3 SW 1021,3 20 0,0
14.08.2019 12:00:00 20,2 14,8 9 5 WSW 1021,6 19 0,0
14.08.2019 11:00:00 17,8 13,9 9 5 SW 1022,0 18 -
14.08.2019 10:00:00 15,6 14,5 4 2 ENE 1022,1 18 0,0
14.08.2019 09:00:00 11,9 11,6 2 1 E 1022,8 11 0,0
14.08.2019 08:00:00 10,8 10,3 2 1 W 1022,3 11 -
14.08.2019 07:00:00 10,4 9,8 2 1 SW 1022,9 10 0,0
14.08.2019 06:00:00 10,0 9,4 2 1 E 1022,8 7 0,0
14.08.2019 05:00:00 10,5 9,7 2 1 WSW 1022,5 9 -
14.08.2019 04:00:00 11,0 10,1 2 1 SE 1023,0 9 0,0
14.08.2019 03:00:00 11,2 10,3 4 2 SSE 1023,0 9 0,0
14.08.2019 02:00:00 12,2 10,8 2 1 S 1022,9 15 -
14.08.2019 01:00:00 12,7 11,9 4 2 NW 1023,1 9 0,0
14.08.2019 00:00:00 13,6 12,0 2 1 WSW 1023,3 17 0,0
13.08.2019 23:00:00 15,0 12,3 4 2 W 1023,1 20 -
13.08.2019 22:00:00 16,5 13,0 4 2 NE 1022,0 20 0,0
13.08.2019 21:00:00 18,5 13,4 5 3 NE 1021,4 20 0,0
13.08.2019 20:00:00 21,0 13,7 11 6 ENE 1020,4 20 -
13.08.2019 19:00:00 25,2 9,9 5 3 NW 1019,3 19 0,0
13.08.2019 18:00:00 25,3 9,2 8 4 WNW 1019,4 20 0,0
13.08.2019 17:00:00 25,2 9,1 5 3 WNW 1019,6 20 -
13.08.2019 16:00:00 24,1 9,3 4 2 W 1020,4 20 0,0
13.08.2019 15:00:00 22,7 9,8 5 3 NW 1021,3 20 0,0
13.08.2019 14:00:00 21,7 10,8 5 3 NW 1021,9 20 -
13.08.2019 13:00:00 20,3 11,8 4 2 ENE 1022,3 20 0,0
13.08.2019 12:00:00 18,0 11,3 4 2 NNE 1023,2 20 0,0
13.08.2019 11:00:00 15,6 11,2 4 2 ENE 1023,7 20 -
13.08.2019 10:00:00 11,8 10,0 2 1 WNW 1024,3 20 0,0
13.08.2019 09:00:00 8,1 7,8 0 0 N 1025,2 17 0,0
13.08.2019 08:00:00 6,5 5,6 2 1 WNW 1025,1 17 -
13.08.2019 07:00:00 6,5 5,8 2 1 SSE 1025,1 1,0 0,0
13.08.2019 06:00:00 6,9 5,8 2 1 S 1024,7 10 0,0
13.08.2019 05:00:00 7,6 6,5 2 1 S 1024,7 13 -
13.08.2019 04:00:00 8,1 6,7 2 1 SSW 1025,0 17 0,0
13.08.2019 03:00:00 9,0 7,8 2 1 SSE 1025,3 11 0,0
13.08.2019 02:00:00 9,8 8,6 2 1 SW 1025,9 19 -
13.08.2019 01:00:00 11,3 9,4 4 2 NNW 1025,8 20 0,0
13.08.2019 00:00:00 12,5 10,2 4 2 NE 1025,8 20 0,0

tt = temperature
td = dewpoint
ff = wind speed
dd = wind direction
ppp = reduced air pressure
vv = visibility
rr = precipitation

Next stations